Location: Devore Heights
(34.2372°N, 117.4156°W)
Time: 00:56:35
(UTC+00:00)

Altair - Pass Details

Date: 19 September 2024
Orbit: 1501 x 1682 km, 47.2° (Epoch: 09 October)

Event Time Altitude Azimuth Distance (km) Brightness Sun altitude
Exits shadow 10:03:39 56° 351° (N) 1,928 7.9 -41.6°
Drops below altitude 10° 10:12:52 10° 53° (NE) 3,947 10.3 -40.2°
Sets 10:16:10 0° 57° (ENE) 4,938 11.1 -39.6°
